Location: ?????
(37.7324°N, 23.9257°E)
Time: 14:42:05
(UTC+00:00)

SJ 16-02 - Visible Passes

Search period start: 20 April 2021 00:00
Search period end: 30 April 2021 00:00
Orbit: 605 x 617 km, 75.0° (Epoch: 20 April)

Date Brightness Start Highest point End Pass type
(mag) Time Alt. Az. Time Alt. Az. Time Alt. Az.
20 Apr 3.8 00:10:38 19° N 00:10:38 19° N 00:11:56 10° NNE visible
21 Apr 3.8 00:25:14 17° N 00:25:14 17° N 00:26:29 10° N visible
22 Apr 3.9 00:39:48 13° NNW 00:39:48 13° NNW 00:40:37 10° NNW visible
22 Apr 4.3 23:17:23 13° NNE 23:17:23 13° NNE 23:17:56 10° NNE visible
23 Apr 4.2 23:31:54 15° N 23:31:54 15° N 23:32:44 10° N visible
24 Apr 4.1 23:46:24 14° N 23:46:24 14° N 23:47:12 10° N visible
26 Apr 4.2 00:00:52 11° NNW 00:00:52 11° NNW 00:01:12 10° NNW visible
26 Apr 4.4 22:38:22 13° NNE 22:38:22 13° NNE 22:38:48 10° NNE visible
27 Apr 4.3 22:52:47 14° N 22:52:47 14° N 22:53:31 10° N visible
28 Apr 4.2 23:07:11 13° NNW 23:07:11 13° NNW 23:07:53 10° N visible
29 Apr 4.4 21:44:36 10° NNE 21:44:36 10° NNE 21:44:40 10° NNE visible
29 Apr 4.3 23:21:34 10° NNW 23:21:34 10° NNW 23:21:41 10° NNW visible
